Location: Delettes
(50.6178°N, 2.2123°E)
Time: 07:22:22
(UTC+00:00)

Terra - Pass Details

Date: 27 February 2020
Orbit: 701 x 703 km, 98.2° (Epoch: 31 March)

Event Time Altitude Azimuth Distance (km) Brightness Sun altitude
Exits shadow 21:36:21 15° 349° (N) 1,891 4.5 -37.8°
Drops below altitude 10° 21:37:05 10° 348° (NNW) 2,183 4.9 -37.9°
Sets 21:39:21 0° 347° (NNW) 3,106 5.8 -38.2°
